TOM9BM EGHH-LEMH

Flight info

Callsign TOM9BM
Flight time N/A
Altitude 35000
Route SAM Y8 GWC UN859 SOPIL DCT BALAN DCT EVPOK DCT NARAK DCT GAI DCT LOMRA DCT ROCAN DCT GEANT DCT GIR DCT SALON DCT SULID N727 SARGO
Aircraft A321/M-SDE3FGHIRWY/LB1

Departure

Time N/A
Airport Bournemouth Airport (EGHH)

Arrival

Time 2026-04-24 13:46
Airport Menorca Airport (LEMH)
Time Latitude Longitude Altitude Speed Heading
2026-04-24 13:46 39.86530 4.22416 290 ft 0 kts 99°
2026-04-24 13:47 39.86531 4.22402 290 ft 2 kts 89°
2026-04-24 13:47 39.86529 4.22382 291 ft 2 kts 76°
2026-04-24 13:48 39.86524 4.22364 291 ft 2 kts 63°
2026-04-24 13:48 39.86516 4.22347 291 ft 2 kts 49°
2026-04-24 13:48 39.86505 4.22334 291 ft 2 kts 37°
2026-04-24 13:48 39.86492 4.22324 291 ft 2 kts 24°
2026-04-24 13:49 39.86479 4.22318 291 ft 1 kts 11°
2026-04-24 13:49 39.86474 4.22316 291 ft 0 kts
2026-04-24 13:49 39.86474 4.22317 291 ft 0 kts
2026-04-24 13:52 39.86499 4.22321 291 ft 8 kts
2026-04-24 13:53 39.86584 4.22340 292 ft 16 kts
2026-04-24 13:53 39.86704 4.22367 293 ft 17 kts
2026-04-24 13:53 39.86824 4.22393 295 ft 17 kts
2026-04-24 13:53 39.86912 4.22350 297 ft 10 kts 283°
2026-04-24 13:54 39.86941 4.22263 298 ft 12 kts 324°
2026-04-24 13:54 39.87056 4.22266 300 ft 20 kts
2026-04-24 13:54 39.87217 4.22301 303 ft 25 kts
2026-04-24 13:54 39.87379 4.22300 305 ft 22 kts 308°
2026-04-24 13:55 39.87368 4.22114 306 ft 21 kts 232°
2026-04-24 13:55 39.87228 4.22060 305 ft 23 kts 187°
2026-04-24 13:55 39.86946 4.22004 301 ft 75 kts 188°
2026-04-24 13:55 39.86161 4.21843 296 ft 150 kts 188°
2026-04-24 13:56 39.85002 4.21611 574 ft 183 kts 188°
2026-04-24 13:56 39.83684 4.21338 1255 ft 196 kts 189°
2026-04-24 13:56 39.82416 4.21060 2344 ft 188 kts 189°
2026-04-24 13:56 39.81101 4.20768 3081 ft 199 kts 189°
2026-04-24 13:57 39.79701 4.20459 3690 ft 216 kts 189°
2026-04-24 13:57 39.78164 4.20121 4298 ft 235 kts 190°
2026-04-24 13:57 39.76584 4.19402 4848 ft 248 kts 217°
2026-04-24 13:57 39.75522 4.17624 5151 ft 259 kts 253°
2026-04-24 13:58 39.75458 4.15272 5521 ft 268 kts 289°
2026-04-24 13:58 39.76025 4.13692 5965 ft 268 kts 303°
2026-04-24 13:58 39.77017 4.11982 6549 ft 269 kts 312°
2026-04-24 13:58 39.78351 4.10290 7162 ft 271 kts 320°
2026-04-24 13:59 39.79871 4.08853 7775 ft 273 kts 328°
2026-04-24 13:59 39.81555 4.07709 8384 ft 275 kts 337°
2026-04-24 13:59 39.83366 4.06909 8977 ft 277 kts 346°
2026-04-24 13:59 39.85247 4.06492 9544 ft 280 kts 354°
2026-04-24 14:00 39.87218 4.06476 10105 ft 283 kts
2026-04-24 14:00 39.89193 4.06889 10461 ft 295 kts 13°
2026-04-24 14:00 39.91145 4.07771 10701 ft 309 kts 23°
2026-04-24 14:00 39.93063 4.09194 10959 ft 324 kts 34°
2026-04-24 14:01 39.94790 4.11138 11397 ft 332 kts 44°
2026-04-24 14:01 39.96410 4.13289 11954 ft 333 kts 39°
2026-04-24 14:01 39.98340 4.14933 12250 ft 339 kts 19°
2026-04-24 14:01 40.00594 4.15500 12451 ft 347 kts 356°
2026-04-24 14:02 40.02993 4.14963 12692 ft 356 kts 345°
2026-04-24 14:02 40.05438 4.14142 12912 ft 368 kts 344°
2026-04-24 14:02 40.07919 4.13292 13277 ft 375 kts 344°
2026-04-24 14:02 40.10353 4.12465 13793 ft 376 kts 344°
2026-04-24 14:03 40.12965 4.11589 14334 ft 379 kts 344°
2026-04-24 14:03 40.15514 4.10740 14825 ft 381 kts 344°
2026-04-24 14:03 40.18054 4.09895 15304 ft 384 kts 344°
2026-04-24 14:03 40.20659 4.09029 15784 ft 386 kts 344°
2026-04-24 14:04 40.23252 4.08165 16250 ft 388 kts 344°
2026-04-24 14:04 40.25883 4.07289 16711 ft 391 kts 344°
2026-04-24 14:04 40.28509 4.06413 17158 ft 393 kts 344°
2026-04-24 14:04 40.31147 4.05533 17594 ft 396 kts 344°
2026-04-24 14:05 40.33827 4.04637 18027 ft 398 kts 344°
2026-04-24 14:05 40.36488 4.03747 18446 ft 400 kts 344°
2026-04-24 14:05 40.39203 4.02837 18859 ft 402 kts 344°
2026-04-24 14:05 40.41916 4.01928 19266 ft 404 kts 344°
2026-04-24 14:06 40.44609 4.01024 19655 ft 407 kts 344°
2026-04-24 14:06 40.47367 4.00098 20045 ft 409 kts 344°
2026-04-24 14:06 40.50124 3.99173 20427 ft 411 kts 344°
2026-04-24 14:06 40.52890 3.98212 20799 ft 413 kts 343°
2026-04-24 14:07 40.55651 3.97231 21160 ft 415 kts 343°
2026-04-24 14:07 40.58434 3.96237 21506 ft 417 kts 343°
2026-04-24 14:07 40.61232 3.95235 21846 ft 419 kts 343°
2026-04-24 14:07 40.64031 3.94233 22178 ft 421 kts 343°
2026-04-24 14:08 40.66835 3.93229 22502 ft 423 kts 343°
2026-04-24 14:08 40.69686 3.92208 22826 ft 425 kts 343°
2026-04-24 14:08 40.72543 3.91183 23139 ft 426 kts 343°
2026-04-24 14:08 40.75370 3.90169 23438 ft 428 kts 343°
2026-04-24 14:09 40.78268 3.89127 23737 ft 430 kts 343°
2026-04-24 14:09 40.81133 3.88097 24033 ft 431 kts 343°
2026-04-24 14:09 40.84031 3.87053 24322 ft 433 kts 343°
2026-04-24 14:09 40.86917 3.86013 24587 ft 435 kts 343°
2026-04-24 14:10 40.89832 3.84961 24852 ft 437 kts 343°
2026-04-24 14:10 40.92777 3.83896 25116 ft 438 kts 343°
2026-04-24 14:10 40.95706 3.82836 25370 ft 440 kts 343°
2026-04-24 14:10 40.98639 3.81776 25631 ft 441 kts 343°
2026-04-24 14:11 41.01595 3.80710 25978 ft 440 kts 342°
2026-04-24 14:11 41.04552 3.79642 26450 ft 436 kts 342°
2026-04-24 14:11 41.10308 3.77554 27319 ft 428 kts 341°
2026-04-24 14:12 41.13099 3.76223 27686 ft 421 kts 331°
2026-04-24 14:12 41.15576 3.74244 28026 ft 416 kts 321°
2026-04-24 14:12 41.17677 3.71711 28304 ft 412 kts 311°
2026-04-24 14:12 41.19515 3.68765 28579 ft 411 kts 308°
2026-04-24 14:13 41.21273 3.65804 28826 ft 411 kts 307°
2026-04-24 14:13 41.23042 3.62798 29072 ft 411 kts 307°
2026-04-24 14:13 41.24778 3.59846 29325 ft 410 kts 307°
2026-04-24 14:13 41.26542 3.56844 29583 ft 409 kts 307°
2026-04-24 14:14 41.28267 3.53908 29828 ft 408 kts 307°
2026-04-24 14:14 41.30018 3.50928 30066 ft 407 kts 307°
2026-04-24 14:14 41.33495 3.45005 30512 ft 406 kts 307°
2026-04-24 14:15 41.35225 3.42054 30725 ft 405 kts 307°
2026-04-24 14:15 41.36959 3.39094 30933 ft 405 kts 307°
2026-04-24 14:15 41.38662 3.36185 31129 ft 404 kts 307°
2026-04-24 14:15 41.40393 3.33218 31331 ft 403 kts 307°
2026-04-24 14:16 41.42070 3.30335 31535 ft 403 kts 306°
2026-04-24 14:16 41.43439 3.27978 31698 ft 402 kts 306°
2026-04-24 14:16 41.45146 3.25042 31892 ft 401 kts 306°
2026-04-24 14:17 41.48533 3.19216 32249 ft 401 kts 307°
2026-04-24 14:17 41.50252 3.16256 32392 ft 401 kts 306°
2026-04-24 14:17 41.53657 3.10390 32658 ft 402 kts 306°
2026-04-24 14:18 41.55368 3.07443 32783 ft 403 kts 306°
2026-04-24 14:18 41.57079 3.04490 32891 ft 404 kts 306°
2026-04-24 14:18 41.60539 2.98512 33087 ft 406 kts 306°
2026-04-24 14:19 41.63987 2.92541 33283 ft 408 kts 305°
2026-04-24 14:19 41.67455 2.86520 33451 ft 411 kts 305°
2026-04-24 14:20 41.69202 2.83481 33560 ft 411 kts 305°
2026-04-24 14:20 41.70939 2.80456 33675 ft 411 kts 305°
2026-04-24 14:20 41.72684 2.77416 33791 ft 412 kts 305°
2026-04-24 14:20 41.74408 2.74408 33910 ft 412 kts 305°
2026-04-24 14:21 41.77892 2.68322 33985 ft 412 kts 305°
2026-04-24 14:21 41.81379 2.62223 33988 ft 413 kts 305°
2026-04-24 14:22 41.84878 2.56086 33989 ft 413 kts 305°
2026-04-24 14:23 41.90102 2.46903 33988 ft 413 kts 305°
2026-04-24 14:23 41.93563 2.40807 33988 ft 413 kts 305°
2026-04-24 14:24 41.97032 2.34681 33989 ft 413 kts 304°
2026-04-24 14:24 42.00503 2.28513 33989 ft 412 kts 304°
2026-04-24 14:25 42.03958 2.22374 33989 ft 413 kts 304°
2026-04-24 14:25 42.07399 2.16255 33989 ft 412 kts 304°
2026-04-24 14:26 42.10863 2.10091 33988 ft 413 kts 304°
2026-04-24 14:26 42.14309 2.03992 33980 ft 413 kts 304°
2026-04-24 14:27 42.17762 1.97846 33970 ft 413 kts 304°
2026-04-24 14:27 42.21212 1.91673 33957 ft 413 kts 304°
2026-04-24 14:28 42.24653 1.85496 33947 ft 413 kts 304°
2026-04-24 14:28 42.28087 1.79316 33941 ft 413 kts 304°
2026-04-24 14:29 42.31530 1.73100 33938 ft 413 kts 304°
2026-04-24 14:29 42.34950 1.66910 33937 ft 413 kts 304°
2026-04-24 14:30 42.38445 1.60701 33933 ft 415 kts 308°
2026-04-24 14:30 42.42706 1.55433 33934 ft 421 kts 321°
2026-04-24 14:31 42.47852 1.51661 33935 ft 430 kts 334°
2026-04-24 14:31 42.53708 1.49665 33937 ft 439 kts 347°
2026-04-24 14:32 42.59684 1.48357 33935 ft 435 kts 343°
2026-04-24 14:32 42.65484 1.46207 33937 ft 430 kts 336°
2026-04-24 14:33 42.71044 1.43331 33936 ft 428 kts 333°
2026-04-24 14:33 42.76552 1.40296 33936 ft 428 kts 333°
2026-04-24 14:34 42.82046 1.37266 33936 ft 428 kts 333°
2026-04-24 14:34 42.87528 1.34242 33938 ft 428 kts 333°
2026-04-24 14:35 42.93034 1.31182 33937 ft 426 kts 332°
2026-04-24 14:35 42.95773 1.29664 34043 ft 424 kts 332°
2026-04-24 14:35 42.98476 1.28166 34085 ft 424 kts 331°
2026-04-24 14:36 43.03884 1.25169 34098 ft 420 kts 330°
2026-04-24 14:36 43.09288 1.22162 34098 ft 419 kts 330°
2026-04-24 14:37 43.14572 1.19230 34099 ft 420 kts 330°
2026-04-24 14:37 43.19991 1.16225 34099 ft 420 kts 330°
2026-04-24 14:38 43.25381 1.13223 34098 ft 421 kts 330°
2026-04-24 14:38 43.30788 1.10201 34098 ft 422 kts 330°
2026-04-24 14:39 43.36216 1.07160 34098 ft 424 kts 330°
2026-04-24 14:39 43.41658 1.04105 34099 ft 424 kts 329°
2026-04-24 14:40 43.47125 1.01031 34098 ft 426 kts 329°
2026-04-24 14:40 43.52584 0.97955 34099 ft 427 kts 329°
2026-04-24 14:41 43.58076 0.94852 34099 ft 428 kts 329°
2026-04-24 14:41 43.63601 0.91723 34097 ft 429 kts 329°
2026-04-24 14:42 43.69094 0.88609 34094 ft 429 kts 329°
2026-04-24 14:42 43.74591 0.85486 34091 ft 428 kts 329°
2026-04-24 14:43 43.80090 0.82354 34087 ft 429 kts 329°
2026-04-24 14:43 43.85592 0.79213 34080 ft 427 kts 329°
2026-04-24 14:44 43.91038 0.76097 34064 ft 428 kts 329°
2026-04-24 14:44 43.96524 0.72949 34054 ft 428 kts 329°
2026-04-24 14:45 44.01931 0.69843 34046 ft 428 kts 329°
2026-04-24 14:45 44.07397 0.66779 34044 ft 428 kts 330°
2026-04-24 14:46 44.12874 0.63762 34044 ft 429 kts 330°
2026-04-24 14:46 44.18394 0.60716 34043 ft 429 kts 330°
2026-04-24 14:47 44.23925 0.57640 34042 ft 428 kts 330°
2026-04-24 14:47 44.29425 0.54566 34044 ft 428 kts 330°
2026-04-24 14:48 44.34946 0.51470 34046 ft 429 kts 330°
2026-04-24 14:48 44.40451 0.48377 34044 ft 428 kts 330°
2026-04-24 14:49 44.45957 0.45275 34042 ft 428 kts 330°
2026-04-24 14:49 44.51471 0.42162 34044 ft 428 kts 330°
2026-04-24 14:50 44.57015 0.39026 34050 ft 429 kts 330°
2026-04-24 14:50 44.62499 0.35917 34058 ft 429 kts 330°
2026-04-24 14:51 44.67916 0.32826 34064 ft 427 kts 329°
2026-04-24 14:51 44.73423 0.29669 34068 ft 428 kts 329°
2026-04-24 14:52 44.78889 0.26543 34067 ft 427 kts 329°
2026-04-24 14:52 44.84394 0.23395 34068 ft 427 kts 329°
2026-04-24 14:53 44.89891 0.20243 34069 ft 428 kts 329°
2026-04-24 14:53 44.95367 0.17100 34068 ft 427 kts 329°
2026-04-24 14:54 45.00821 0.14011 34066 ft 430 kts 330°
2026-04-24 14:54 45.06364 0.10975 34067 ft 432 kts 331°
2026-04-24 14:55 45.11754 0.08016 34066 ft 435 kts 331°
2026-04-24 14:55 45.17395 0.04929 34067 ft 436 kts 331°
2026-04-24 14:56 45.23021 0.01829 34068 ft 436 kts 331°
2026-04-24 14:56 45.28667 -0.01297 34067 ft 436 kts 331°
2026-04-24 14:57 45.34284 -0.04420 34068 ft 435 kts 331°
2026-04-24 14:57 45.39916 -0.07559 34067 ft 436 kts 331°
2026-04-24 14:58 45.45535 -0.10698 34068 ft 436 kts 331°
2026-04-24 14:58 45.51156 -0.13847 34068 ft 436 kts 331°
2026-04-24 14:59 45.56795 -0.17011 34068 ft 436 kts 331°
2026-04-24 14:59 45.62427 -0.20179 34069 ft 436 kts 331°
2026-04-24 15:00 45.68013 -0.23327 34069 ft 435 kts 331°
2026-04-24 15:00 45.73628 -0.26498 34069 ft 436 kts 331°
2026-04-24 15:01 45.79273 -0.29694 34067 ft 436 kts 331°
2026-04-24 15:01 45.84890 -0.32879 34068 ft 436 kts 331°
2026-04-24 15:02 45.90497 -0.36068 34067 ft 436 kts 331°
2026-04-24 15:02 45.96122 -0.39273 34068 ft 436 kts 331°
2026-04-24 15:03 46.01747 -0.42486 34069 ft 436 kts 331°
2026-04-24 15:03 46.07379 -0.45710 34068 ft 436 kts 331°
2026-04-24 15:04 46.12976 -0.48914 34069 ft 436 kts 331°
2026-04-24 15:04 46.18595 -0.52127 34070 ft 436 kts 331°
2026-04-24 15:05 46.24213 -0.55360 34069 ft 436 kts 331°
2026-04-24 15:05 46.29845 -0.58618 34069 ft 436 kts 331°
2026-04-24 15:06 46.35452 -0.61874 34068 ft 435 kts 331°
2026-04-24 15:06 46.41047 -0.65123 34070 ft 436 kts 330°
2026-04-24 15:07 46.46766 -0.68043 34069 ft 439 kts 334°
2026-04-24 15:07 46.52537 -0.70749 34070 ft 439 kts 334°
2026-04-24 15:08 46.58351 -0.73474 34071 ft 438 kts 334°
2026-04-24 15:08 46.64146 -0.76207 34075 ft 439 kts 334°
2026-04-24 15:09 46.69810 -0.78886 34082 ft 439 kts 334°
2026-04-24 15:09 46.75584 -0.81624 34090 ft 439 kts 334°
2026-04-24 15:10 46.81393 -0.84384 34094 ft 438 kts 334°
2026-04-24 15:10 46.87165 -0.87135 34096 ft 439 kts 334°
2026-04-24 15:11 46.92928 -0.89881 34097 ft 437 kts 334°
2026-04-24 15:11 46.98691 -0.92633 34099 ft 435 kts 333°
2026-04-24 15:12 47.04395 -0.95366 34099 ft 432 kts 333°
2026-04-24 15:12 47.12908 -0.99462 34098 ft 431 kts 332°
2026-04-24 15:13 47.18596 -1.02190 34099 ft 431 kts 332°
2026-04-24 15:13 47.24289 -1.04935 34099 ft 431 kts 332°
2026-04-24 15:14 47.29971 -1.07686 34101 ft 431 kts 332°
2026-04-24 15:14 47.35638 -1.10438 34104 ft 430 kts 332°
2026-04-24 15:15 47.41286 -1.13188 34106 ft 430 kts 331°
2026-04-24 15:15 47.46960 -1.15956 34104 ft 430 kts 331°
2026-04-24 15:16 47.52602 -1.18716 34103 ft 430 kts 331°
2026-04-24 15:16 47.58270 -1.21497 34102 ft 430 kts 331°
2026-04-24 15:17 47.63929 -1.24280 34107 ft 430 kts 331°
2026-04-24 15:17 47.69592 -1.27073 34115 ft 430 kts 331°
2026-04-24 15:18 47.75256 -1.29871 34121 ft 430 kts 331°
2026-04-24 15:18 47.80878 -1.32655 34122 ft 429 kts 331°
2026-04-24 15:19 47.86569 -1.35486 34123 ft 430 kts 331°
2026-04-24 15:19 47.92231 -1.38304 34123 ft 429 kts 331°